Snowfall_Accumulation
0.1 0.0 0.1 0.0 0.2 0.3 0.3 0.2 0.1 0.1 0.0 0.0 0.0 0.1 0.0 0.1 0.1 0.1 0.1 0.1 0.2 0.2
0.3 0.3 0.2 0.2 0.1 0.3 0.2 0.3 0.2 0.1 0.1 0.0 0.0 0.0 0.0 0.1 0.0 0.0 0.1 0.2 0.2 0.3
0.7 0.5 0.7 0.4 0.3 0.3 0.2 0.1 0.1 0.1 0.1 0.1 0.0 0.0 0.0 0.0 0.0 0.0 0.1 0.2 0.2 0.3
2.7 0.8 0.8 1.1 1.6 0.9 1.4 0.3 0.2 0.1 0.3 0.4 0.3 0.1 0.1 0.1 0.2 0.0 0.1 0.1 0.2 0.2
9.1 11.4 6.2 6.5 4.5 5.8 6.1 2.8 2.6 2.5 1.8 1.5 0.7 1.4 0.3 0.4 1.6 1.7 0.4 0.6 0.5 0.7
7.5 10.3 14.3 11.5 10.1 7.9 7.9 7.6 7.4 6.6 5.4 4.6 5.0 4.8 7.4 3.6 1.7 2.0 3.2 3.4 2.9 1.7
10.2 1.7 5.2 10.4 7.7 5.6 5.7 7.9 10.2 13.3 14.1 12.0 7.3 7.9 6.9 6.3 7.2 3.7 5.4 6.5 2.8 2.7
3.5 2.4 0.8 0.9 1.9 1.6 1.4 3.1 8.8 9.0 10.4 9.1 6.8 6.6 4.4 2.9 6.3 6.4 5.6 8.5 6.3 4.7
0.6 0.6 0.7 0.3 2.9 0.1 0.0 0.0 0.5 1.8 0.5 3.3 2.7 1.9 0.8 0.5 1.7 3.0 2.4 2.5 2.4 2.1
2.9 4.1 3.9 3.2 2.7 4.9 1.7 2.0 0.7 0.6 0.3 0.1 0.1 0.3 0.2 0.0 0.2 0.4 0.9 0.9 0.7 0.7
3.6 4.2 4.2 4.6 4.2 3.9 3.7 2.1 1.9 4.7 2.3 2.6 0.3 0.1 0.0 0.1 0.0 0.0 0.0 1.0 0.1 0.2
4.6 3.9 4.4 4.6 4.0 3.4 3.5 3.8 3.5 3.4 1.1 2.2 0.6 0.5 0.5 0.4 0.3 1.1 0.9 0.4 0.0 0.0
7.1 4.3 7.3 7.0 4.7 6.7 3.4 4.4 4.2 3.4 2.2 1.6 1.4 0.5 0.8 0.6 1.0 1.1 0.2 0.2 0.1 0.1
10.9 4.2 8.1 10.3 8.3 6.7 6.3 8.7 8.3 4.0 6.7 6.3 0.9 0.6 0.3 1.5 1.4 2.3 3.4 1.2 0.9 0.8